Location: Christianberg
(48.9086°N, 14.0209°E)
Time: 18:00:03
(UTC+00:00)

FENGYUN 1C DEB - Pass Details

Date: 07 February 2022
Orbit: 832 x 1169 km, 98.6° (Epoch: 26 May)

Event Time Altitude Azimuth Distance (km) Brightness Sun altitude
Rises 04:08:57 0° 190° (S) 3,373 ? -22.8°
Enters shadow 04:11:03 - 197° (SSW) 2,590 ? -22.4°
Exits shadow 04:23:14 - 337° (NNW) 3,195 ? -20.4°
Sets 04:24:00 0° 340° (NNW) 3,480 ? -20.3°
